STARLINK-31558

operational
NORAD ID: 59196 Int'l Des: 2024-045 Owner: SPXS Country: US Constellation: starlink
LEOCIRCULAR

关于 STARLINK-31558

正在加载描述...

实时位置

正在加载3D地球...

即将过境

高度历史

Altitude vs Time

uPlot chart will show altitude changes over time

两行轨道根数

1 59196U 24045U 25251.44676661 .00011089 00000-0 41212-3 0 9992
2 59196 43.0013 41.4159 0001124 265.7902 94.2821 15.27561963 85303
Epoch: Sep 8, 2025 • Age: 9 hours

当前状态

高度 494.8 km
速度 7.62 km/s
星下点 -40.92°S, 3.67°E
发射日期 Mar 11, 2024
运行时间 1.4 years
类型 internet

技术详情

分类 Payload
质量 730.00 kg
干质量 700.00 kg
总质量 730.00 kg
长度 0.30 m
直径 4.10 m
跨度 29.00 m
形状 Box + pan
制造商 SPXS
平台类型 Starlink V2M
阶段状态 In Orbit
所有者/国家 SPXS/US

大型星座

Loading constellations...